RYR86DZ EBCI-LFMU

Flight info

Callsign RYR86DZ
Flight time 1h 11m
Altitude 19000
Route CIV Y50 IDOKO/N0334F170 Y50 MATIX/N0342F190 Y50 REM B3 VATRI G40 TRO B373 MOU A27 MEN J27 AFRIC
Aircraft B738/M-SDE2E3FGHIRWXY/LB1

Departure

Time 2026-04-26 17:51
Airport Brussels South Charleroi Airport (EBCI)

Arrival

Time 2026-04-26 19:03
Airport Béziers Vias airport (LFMU)
Time Latitude Longitude Altitude Speed Heading
2026-04-26 17:29 50.46868 4.47099 612 ft 0 kts 335°
2026-04-26 17:43 50.46855 4.47108 630 ft 4 kts 335°
2026-04-26 17:43 50.46833 4.47129 623 ft 4 kts 299°
2026-04-26 17:44 50.46830 4.47165 627 ft 4 kts 249°
2026-04-26 17:44 50.46832 4.47175 627 ft 1 kts 245°
2026-04-26 17:46 50.46831 4.47170 627 ft 1 kts 245°
2026-04-26 17:46 50.46822 4.47139 620 ft 5 kts 245°
2026-04-26 17:46 50.46800 4.47068 612 ft 10 kts 244°
2026-04-26 17:46 50.46760 4.46927 619 ft 18 kts 245°
2026-04-26 17:47 50.46698 4.46769 615 ft 14 kts 186°
2026-04-26 17:47 50.46631 4.46805 620 ft 16 kts 170°
2026-04-26 17:47 50.46554 4.46620 624 ft 20 kts 245°
2026-04-26 17:47 50.46487 4.46391 617 ft 26 kts 246°
2026-04-26 17:48 50.46404 4.46104 622 ft 32 kts 245°
2026-04-26 17:48 50.46306 4.45767 618 ft 36 kts 246°
2026-04-26 17:48 50.46206 4.45422 614 ft 30 kts 245°
2026-04-26 17:48 50.46120 4.45124 618 ft 29 kts 247°
2026-04-26 17:49 50.46037 4.44842 612 ft 28 kts 245°
2026-04-26 17:49 50.45960 4.44577 614 ft 26 kts 245°
2026-04-26 17:49 50.45869 4.44345 620 ft 24 kts 231°
2026-04-26 17:49 50.45769 4.44144 617 ft 23 kts 232°
2026-04-26 17:50 50.45670 4.43955 617 ft 22 kts 223°
2026-04-26 17:50 50.45582 4.43876 615 ft 6 kts 122°
2026-04-26 17:50 50.45586 4.43911 614 ft 0 kts 66°
2026-04-26 17:50 50.45589 4.43923 618 ft 11 kts 66°
2026-04-26 17:51 50.45722 4.44373 625 ft 80 kts 65°
2026-04-26 17:51 50.46044 4.45484 615 ft 139 kts 64°
2026-04-26 17:51 50.46488 4.47049 840 ft 168 kts 65°
2026-04-26 17:51 50.46978 4.48709 1636 ft 166 kts 58°
2026-04-26 17:52 50.47722 4.50070 2432 ft 162 kts 33°
2026-04-26 17:52 50.48750 4.50758 3123 ft 167 kts 34°
2026-04-26 17:52 50.49456 4.52152 3785 ft 171 kts 54°
2026-04-26 17:52 50.50174 4.53687 4476 ft 171 kts 52°
2026-04-26 17:53 50.50932 4.55244 4864 ft 196 kts 52°
2026-04-26 17:53 50.51812 4.57049 5067 ft 220 kts 52°
2026-04-26 17:53 50.52805 4.59026 5238 ft 242 kts 46°
2026-04-26 17:54 50.56149 4.60142 6012 ft 271 kts 338°
2026-04-26 17:54 50.57682 4.58473 6833 ft 271 kts 309°
2026-04-26 17:54 50.58474 4.55815 7604 ft 271 kts 279°
2026-04-26 17:54 50.58596 4.52846 8369 ft 275 kts 270°
2026-04-26 17:55 50.58539 4.49821 9141 ft 278 kts 268°
2026-04-26 17:55 50.58451 4.46757 9865 ft 284 kts 268°
2026-04-26 17:55 50.58368 4.43646 10590 ft 287 kts 268°
2026-04-26 17:55 50.58294 4.40407 10856 ft 307 kts 269°
2026-04-26 17:56 50.58227 4.36922 11021 ft 329 kts 269°
2026-04-26 17:56 50.58106 4.29282 11349 ft 369 kts 269°
2026-04-26 17:57 50.57987 4.20942 12114 ft 388 kts 269°
2026-04-26 17:57 50.57926 4.16674 12727 ft 391 kts 269°
2026-04-26 17:57 50.57864 4.12387 13346 ft 394 kts 269°
2026-04-26 17:57 50.57800 4.08055 13964 ft 397 kts 269°
2026-04-26 17:58 50.57341 3.94909 15677 ft 409 kts 254°
2026-04-26 17:59 50.54027 3.87671 16885 ft 421 kts 217°
2026-04-26 17:59 50.51409 3.85548 17421 ft 429 kts 200°
2026-04-26 17:59 50.48457 3.84749 17940 ft 437 kts 181°
2026-04-26 17:59 50.45413 3.85177 18475 ft 441 kts 174°
2026-04-26 18:00 50.42360 3.85802 18932 ft 445 kts 174°
2026-04-26 18:00 50.39277 3.86410 19381 ft 448 kts 175°
2026-04-26 18:00 50.36167 3.86964 19811 ft 452 kts 175°
2026-04-26 18:00 50.33034 3.87491 20254 ft 455 kts 175°
2026-04-26 18:01 50.29879 3.88016 20712 ft 457 kts 175°
2026-04-26 18:01 50.26707 3.88549 21147 ft 460 kts 175°
2026-04-26 18:01 50.23516 3.89087 21554 ft 463 kts 176°
2026-04-26 18:01 50.20298 3.89630 21956 ft 466 kts 176°
2026-04-26 18:02 50.17065 3.90176 22346 ft 469 kts 176°
2026-04-26 18:02 50.15965 3.90362 22483 ft 470 kts 176°
2026-04-26 18:02 50.11647 3.91088 22975 ft 474 kts 176°
2026-04-26 18:02 50.08362 3.91641 23317 ft 477 kts 176°
2026-04-26 18:03 50.05052 3.92200 23681 ft 480 kts 176°
2026-04-26 18:03 50.01728 3.92764 24000 ft 482 kts 176°
2026-04-26 18:03 49.98384 3.93331 24299 ft 484 kts 176°
2026-04-26 18:03 49.95029 3.93899 24606 ft 486 kts 176°
2026-04-26 18:04 49.91657 3.94469 24916 ft 488 kts 176°
2026-04-26 18:04 49.88276 3.95040 25184 ft 490 kts 176°
2026-04-26 18:04 49.84874 3.95613 25449 ft 493 kts 176°
2026-04-26 18:05 49.78035 3.96762 26001 ft 496 kts 176°
2026-04-26 18:05 49.74600 3.97341 26288 ft 497 kts 176°
2026-04-26 18:05 49.71168 3.97919 26638 ft 496 kts 176°
2026-04-26 18:05 49.67744 3.98497 27001 ft 494 kts 176°
2026-04-26 18:06 49.64327 3.99071 27339 ft 494 kts 176°
2026-04-26 18:06 49.60908 3.99645 27657 ft 494 kts 176°
2026-04-26 18:06 49.57488 4.00218 28024 ft 493 kts 176°
2026-04-26 18:06 49.54078 4.00787 28414 ft 492 kts 176°
2026-04-26 18:07 49.50676 4.01352 28785 ft 492 kts 176°
2026-04-26 18:07 49.47276 4.01915 29172 ft 491 kts 176°
2026-04-26 18:07 49.43885 4.02477 29527 ft 490 kts 176°
2026-04-26 18:07 49.41640 4.02848 29778 ft 490 kts 176°
2026-04-26 18:08 49.37109 4.03596 30275 ft 489 kts 176°
2026-04-26 18:08 49.33732 4.04127 30587 ft 488 kts 176°
2026-04-26 18:08 49.30349 4.04602 30896 ft 487 kts 179°
2026-04-26 18:08 49.26971 4.04787 31207 ft 485 kts 182°
2026-04-26 18:09 49.23645 4.04800 31520 ft 484 kts 183°
2026-04-26 18:09 49.20277 4.04785 31791 ft 484 kts 182°
2026-04-26 18:09 49.16911 4.04817 32082 ft 484 kts 182°
2026-04-26 18:09 49.13548 4.04890 32398 ft 483 kts 182°
2026-04-26 18:10 49.10190 4.04981 32716 ft 482 kts 182°
2026-04-26 18:10 49.06838 4.05075 33021 ft 481 kts 182°
2026-04-26 18:10 49.03493 4.05167 33313 ft 481 kts 182°
2026-04-26 18:10 49.00147 4.05258 33597 ft 480 kts 182°
2026-04-26 18:11 48.96806 4.05346 33878 ft 480 kts 182°
2026-04-26 18:11 48.93465 4.05433 34166 ft 480 kts 182°
2026-04-26 18:11 48.90131 4.05519 34430 ft 478 kts 182°
2026-04-26 18:11 48.86805 4.05606 34686 ft 478 kts 182°
2026-04-26 18:12 48.83485 4.05692 34924 ft 477 kts 182°
2026-04-26 18:12 48.80167 4.05778 35166 ft 476 kts 182°
2026-04-26 18:12 48.76844 4.05855 35205 ft 480 kts 182°
2026-04-26 18:13 48.70180 4.05965 35209 ft 478 kts 182°
2026-04-26 18:13 48.63555 4.06071 35212 ft 475 kts 182°
2026-04-26 18:14 48.56965 4.06154 35197 ft 473 kts 185°
2026-04-26 18:14 48.50529 4.04628 35201 ft 467 kts 196°
2026-04-26 18:15 48.44189 4.02452 35189 ft 468 kts 196°
2026-04-26 18:15 48.37821 4.00356 35187 ft 470 kts 195°
2026-04-26 18:16 48.31414 3.98311 35186 ft 471 kts 195°
2026-04-26 18:16 48.21739 3.95432 35188 ft 475 kts 191°
2026-04-26 18:17 48.15180 3.94072 35178 ft 477 kts 190°
2026-04-26 18:17 48.08605 3.92709 35191 ft 477 kts 191°
2026-04-26 18:18 48.02039 3.91282 35187 ft 477 kts 191°
2026-04-26 18:18 47.95463 3.89845 35185 ft 478 kts 191°
2026-04-26 18:19 47.88884 3.88411 35181 ft 478 kts 191°
2026-04-26 18:19 47.82304 3.86980 35178 ft 478 kts 191°
2026-04-26 18:20 47.75761 3.85563 35181 ft 478 kts 191°
2026-04-26 18:20 47.70245 3.84370 35169 ft 478 kts 191°
2026-04-26 18:21 47.62591 3.82719 35172 ft 478 kts 191°
2026-04-26 18:21 47.56006 3.81302 35168 ft 478 kts 191°
2026-04-26 18:22 47.49423 3.79882 35162 ft 478 kts 191°
2026-04-26 18:22 47.42834 3.78459 35169 ft 478 kts 191°
2026-04-26 18:23 47.36244 3.77039 35158 ft 479 kts 191°
2026-04-26 18:23 47.29648 3.75623 35150 ft 479 kts 191°
2026-04-26 18:24 47.23048 3.74209 35160 ft 480 kts 191°
2026-04-26 18:24 47.16437 3.72796 35157 ft 480 kts 191°
2026-04-26 18:25 47.09826 3.71387 35149 ft 480 kts 191°
2026-04-26 18:25 47.03207 3.69980 35154 ft 480 kts 191°
2026-04-26 18:26 46.96590 3.68576 35149 ft 481 kts 191°
2026-04-26 18:26 46.89969 3.67182 35133 ft 481 kts 190°
2026-04-26 18:27 46.83339 3.65811 35147 ft 481 kts 190°
2026-04-26 18:27 46.76703 3.64440 35144 ft 482 kts 190°
2026-04-26 18:28 46.70078 3.62955 35135 ft 481 kts 195°
2026-04-26 18:28 46.63750 3.59967 35141 ft 478 kts 202°
2026-04-26 18:29 46.57474 3.56746 35143 ft 478 kts 201°
2026-04-26 18:29 46.51166 3.53659 35135 ft 479 kts 201°
2026-04-26 18:30 46.44844 3.50616 35143 ft 479 kts 201°
2026-04-26 18:30 46.38509 3.47585 35155 ft 479 kts 201°
2026-04-26 18:31 46.32173 3.44556 35155 ft 480 kts 201°
2026-04-26 18:31 46.25831 3.41526 35156 ft 480 kts 200°
2026-04-26 18:32 46.19527 3.38524 35159 ft 480 kts 200°
2026-04-26 18:32 46.13182 3.35505 35161 ft 480 kts 200°
2026-04-26 18:33 46.06827 3.32484 35158 ft 481 kts 200°
2026-04-26 18:33 46.00473 3.29471 35157 ft 481 kts 200°
2026-04-26 18:34 45.94106 3.26459 35156 ft 481 kts 200°
2026-04-26 18:34 45.87744 3.23456 35157 ft 481 kts 200°
2026-04-26 18:35 45.81379 3.20464 35160 ft 482 kts 199°
2026-04-26 18:35 45.74764 3.18888 35159 ft 485 kts 182°
2026-04-26 18:36 45.68007 3.18811 35148 ft 486 kts 181°
2026-04-26 18:36 45.61252 3.18744 35158 ft 486 kts 181°
2026-04-26 18:37 45.54483 3.18603 35161 ft 486 kts 182°
2026-04-26 18:37 45.47717 3.18431 35158 ft 486 kts 181°
2026-04-26 18:38 45.41115 3.18261 35164 ft 486 kts 181°
2026-04-26 18:38 45.34250 3.18089 35161 ft 486 kts 181°
2026-04-26 18:39 45.27494 3.17922 35164 ft 486 kts 181°
2026-04-26 18:39 45.20735 3.17755 35167 ft 486 kts 181°
2026-04-26 18:40 45.13974 3.17588 35008 ft 487 kts 181°
2026-04-26 18:40 45.10588 3.17504 34749 ft 486 kts 181°
2026-04-26 18:40 45.07215 3.17374 34514 ft 485 kts 182°
2026-04-26 18:41 45.03834 3.17177 34276 ft 486 kts 182°
2026-04-26 18:41 45.00449 3.16967 34021 ft 488 kts 182°
2026-04-26 18:41 44.97055 3.16770 33763 ft 489 kts 182°
2026-04-26 18:41 44.93663 3.16609 33028 ft 489 kts 181°
2026-04-26 18:42 44.90267 3.16540 32366 ft 487 kts 180°
2026-04-26 18:42 44.86870 3.16514 31596 ft 489 kts 180°
2026-04-26 18:42 44.83466 3.16495 30839 ft 490 kts 180°
2026-04-26 18:42 44.80054 3.16468 30026 ft 491 kts 180°
2026-04-26 18:43 44.76630 3.16429 29073 ft 493 kts 180°
2026-04-26 18:43 44.73195 3.16381 28160 ft 493 kts 180°
2026-04-26 18:43 44.69764 3.16330 27228 ft 494 kts 180°
2026-04-26 18:43 44.66328 3.16279 26249 ft 495 kts 180°
2026-04-26 18:44 44.62939 3.16226 25519 ft 491 kts 180°
2026-04-26 18:44 44.59516 3.15852 24826 ft 486 kts 189°
2026-04-26 18:44 44.56236 3.14788 24167 ft 481 kts 194°
2026-04-26 18:44 44.53024 3.13582 23413 ft 477 kts 195°
2026-04-26 18:45 44.49828 3.12380 22656 ft 472 kts 195°
2026-04-26 18:45 44.46669 3.11213 21945 ft 466 kts 194°
2026-04-26 18:45 44.43549 3.10083 21264 ft 460 kts 194°
2026-04-26 18:45 44.40509 3.08999 20599 ft 455 kts 194°
2026-04-26 18:46 44.37452 3.07918 19937 ft 450 kts 194°
2026-04-26 18:46 44.34428 3.06853 19279 ft 446 kts 194°
2026-04-26 18:46 44.31439 3.05802 18628 ft 441 kts 194°
2026-04-26 18:46 44.28473 3.04761 17892 ft 438 kts 195°
2026-04-26 18:47 44.25534 3.03728 17194 ft 433 kts 195°
2026-04-26 18:47 44.22631 3.02706 16535 ft 428 kts 195°
2026-04-26 18:47 44.19757 3.01696 15888 ft 423 kts 195°
2026-04-26 18:47 44.16914 3.00698 15246 ft 419 kts 194°
2026-04-26 18:48 44.15017 3.00033 14824 ft 416 kts 195°
2026-04-26 18:48 44.11312 2.98735 13991 ft 412 kts 194°
2026-04-26 18:48 44.09442 2.98081 13615 ft 407 kts 194°
2026-04-26 18:48 44.06718 2.97127 13014 ft 402 kts 194°
2026-04-26 18:49 44.04024 2.96183 12413 ft 397 kts 194°
2026-04-26 18:49 44.01365 2.95252 11795 ft 392 kts 194°
2026-04-26 18:49 43.98728 2.94330 11222 ft 388 kts 194°
2026-04-26 18:49 43.96168 2.93436 11086 ft 372 kts 194°
2026-04-26 18:50 43.93705 2.92576 10919 ft 358 kts 195°
2026-04-26 18:50 43.91336 2.91750 10774 ft 345 kts 195°
2026-04-26 18:50 43.89044 2.90951 10621 ft 334 kts 195°
2026-04-26 18:50 43.86892 2.90202 10493 ft 324 kts 194°
2026-04-26 18:51 43.84709 2.89442 10312 ft 316 kts 194°
2026-04-26 18:51 43.82648 2.88724 10231 ft 305 kts 194°
2026-04-26 18:51 43.80621 2.88020 10066 ft 297 kts 195°
2026-04-26 18:51 43.78580 2.87401 9722 ft 296 kts 185°
2026-04-26 18:52 43.76560 2.87818 9401 ft 295 kts 158°
2026-04-26 18:52 43.74776 2.89198 9085 ft 294 kts 146°
2026-04-26 18:52 43.73083 2.90781 8761 ft 293 kts 145°
2026-04-26 18:52 43.71408 2.92384 8445 ft 293 kts 145°
2026-04-26 18:53 43.69734 2.93982 8117 ft 292 kts 144°
2026-04-26 18:53 43.68083 2.95548 7814 ft 291 kts 145°
2026-04-26 18:53 43.66415 2.97125 7521 ft 290 kts 145°
2026-04-26 18:53 43.64738 2.98695 7196 ft 292 kts 145°
2026-04-26 18:54 43.63057 3.00263 6874 ft 292 kts 145°
2026-04-26 18:54 43.61377 3.01828 6576 ft 291 kts 145°
2026-04-26 18:54 43.60024 3.03087 6290 ft 292 kts 145°
2026-04-26 18:54 43.58343 3.04649 5970 ft 290 kts 145°
2026-04-26 18:55 43.56678 3.06195 5691 ft 288 kts 146°
2026-04-26 18:55 43.55029 3.07725 5458 ft 282 kts 146°
2026-04-26 18:55 43.53430 3.09207 5232 ft 271 kts 146°
2026-04-26 18:55 43.51907 3.10617 5100 ft 257 kts 147°
2026-04-26 18:56 43.50458 3.11957 4987 ft 246 kts 147°
2026-04-26 18:56 43.49041 3.13263 4918 ft 244 kts 148°
2026-04-26 18:56 43.47473 3.14046 4775 ft 241 kts 182°
2026-04-26 18:56 43.45832 3.13729 4706 ft 238 kts 193°
2026-04-26 18:57 43.44231 3.13250 4447 ft 231 kts 194°
2026-04-26 18:57 43.43212 3.12946 4298 ft 221 kts 194°
2026-04-26 18:57 43.41278 3.12373 4025 ft 207 kts 194°
2026-04-26 18:57 43.39866 3.12125 3805 ft 203 kts 186°
2026-04-26 18:58 43.38464 3.11996 3595 ft 201 kts 186°
2026-04-26 18:58 43.37079 3.11871 3400 ft 199 kts 187°
2026-04-26 18:58 43.35703 3.11746 3187 ft 196 kts 185°
2026-04-26 18:58 43.34411 3.12169 2961 ft 193 kts 146°
2026-04-26 18:59 43.33625 3.13604 2798 ft 189 kts 109°
2026-04-26 18:59 43.33470 3.15346 2638 ft 186 kts 95°
2026-04-26 18:59 43.33379 3.17114 2448 ft 184 kts 97°
2026-04-26 18:59 43.33277 3.18849 2263 ft 181 kts 97°
2026-04-26 19:00 43.33177 3.20571 2047 ft 181 kts 97°
2026-04-26 19:00 43.33080 3.22281 1797 ft 178 kts 98°
2026-04-26 19:00 43.32984 3.23957 1571 ft 172 kts 97°
2026-04-26 19:00 43.32893 3.25578 1350 ft 168 kts 98°
2026-04-26 19:01 43.32806 3.27115 1156 ft 157 kts 98°
2026-04-26 19:01 43.32721 3.28608 927 ft 156 kts 98°
2026-04-26 19:01 43.32636 3.30103 716 ft 158 kts 99°
2026-04-26 19:01 43.32552 3.31597 485 ft 153 kts 98°
2026-04-26 19:02 43.32457 3.33035 299 ft 153 kts 96°
2026-04-26 19:02 43.32389 3.34492 73 ft 150 kts 97°
2026-04-26 19:02 43.32321 3.35760 53 ft 106 kts 93°
2026-04-26 19:02 43.32292 3.36297 51 ft 64 kts 94°
2026-04-26 19:03 43.32250 3.36689 51 ft 12 kts 132°
2026-04-26 19:03 43.32265 3.36746 51 ft 8 kts 350°
2026-04-26 19:03 43.32276 3.36678 48 ft 8 kts 265°
2026-04-26 19:03 43.32275 3.36593 49 ft 10 kts 269°
2026-04-26 19:04 43.32280 3.36469 47 ft 18 kts 275°
2026-04-26 19:04 43.32295 3.36255 50 ft 27 kts 275°
2026-04-26 19:04 43.32305 3.36045 49 ft 21 kts 275°
2026-04-26 19:04 43.32314 3.35892 53 ft 13 kts 276°
2026-04-26 19:05 43.32325 3.35640 52 ft 15 kts 276°
2026-04-26 19:05 43.32335 3.35494 54 ft 15 kts 275°
2026-04-26 19:05 43.32327 3.35356 52 ft 16 kts 228°
2026-04-26 19:06 43.32229 3.35327 58 ft 8 kts 182°
2026-04-26 19:06 43.32173 3.35342 54 ft 8 kts 161°
2026-04-26 19:06 43.32150 3.35345 57 ft 2 kts 184°
2026-04-26 19:06 43.32138 3.35343 57 ft 2 kts 184°
2026-04-26 19:07 43.32128 3.35343 58 ft 0 kts 184°